Погода в Сосьве

Погода в Сосьве : погода сейчас, прогноз погоды и архив. Всё, что Вы хотите узнать о погоде в Сосьве!

Хотите узнать прогноз погоды в Сосьве? Тогда Вам сюда: Погода в Сосьве

Поиск расширенной информации на нашем сайте:

Другие новости

Новости СМИ2

Главная страница сайта

Новости сайта

03.07.2017

Напоминаем, что на нашем специализированном сайте Метеоцентр.Азия вы можете получить высокодетализированные автоматические прогнозы погоды по пунктам России, СНГ и мира в авиационном формате (включающие направление и скорость ветра, видимость, явления погоды, количество и форму облачности, нижнюю и верхнюю границу облачности).

Рекомендуем: Видео логопедических занятий постановка звука.

Погода в Сосьве - сегодня

Время (UTC), дата Ветер
(°,м/с) 
Видим.   Явления Облачность Т
(°С)
Тd
(°С)
f(%) Тe
(°С)
Pmin
(гПа)
dP
(гПа)
Po
(мм)
O2
(г/м3)
Тmin Tmax R s Состояние
почвы
03 19.11.17 140 (ЮВ) 4000 м  слаб. снег  10/0 средняя 
[As op]
-9.4 -11 88 -11  1010.6  0.7  755  316  -10.2    19  равномерный
сухой снег
100% 
06 19.11.17 130 (ЮВ) 4000 м  слаб. снег  10/0 средняя 
[As op]
-9.1 -10.6 89 -9  1011.7  1.1  756  316           
09 19.11.17 100 (В) 20000 м  {снег}  10/0 средняя 
[As op]
-9.3 -10.7 90 -9  1012.9  1.2  757  317           
12 19.11.17 120 (ЮВ) 4000 м  слаб. снег  10/0 средняя 
[As op]
-8.5 -9.9 90 -8  1013.5  0.6  758  316           
15 19.11.17 140 (ЮВ) 4000 м  слаб. снег  10/0 средняя 
[As op]
-7.6 -9 90 -7  1013.1  -0.4  757  315    -7.6  0.9     
18 19.11.17 тихо ()   20000 м  в посл. час снег  4/0 средняя 
[Ac trans]
-8.3 -9.6 90 -8  1013.5  0.4  757  316           
21 19.11.17 320 (СЗ) 20000 м    10/0 средняя 
[As op]
-8.3 -9.7 90 -8  1014.7  1.2  758  316           
00 20.11.17 тихо ()   20000 м    10/0 средняя 
[As op]
-10.2 -11.6 89 -10  1014.8  0.1  758  319           
03 20.11.17 060 (СВ) 20000 м    10/0 средняя 
[As op]
-8.4 -9.7 90 -8  1014.8  758  316  -10.3    0.3  21  равномерный
сухой снег
100% 
06 20.11.17 160 (Ю) 20000 м    8/0 средняя 
[Ac trans]
-6.2 -7.1 93 -6  1015.3  0.5  759  314           
09 20.11.17 240 (ЮЗ) 20000 м    1/0 средняя 
[Ac trans]
-3.3 -4.8 89 -3  1015.9  0.7  759  310           
12 20.11.17 тихо ()   20000 м    3/3 600 м 
[Sc]
-9.1 -10.2 92 -9  1016.4  0.4  760  318           
15 20.11.17 120 (ЮВ) 20000 м    ясно 
-8.9 -10.1 91 -9  1016.3  0.1  760  317    -1.9       
18 20.11.17 120 (ЮВ) 4000 м  слаб. снег  10/0 средняя 
[As op]
-5.9 -7 92 -7  1015.2  -1.1  759  313           
21 20.11.17 130 (ЮВ) 4000 м  слаб. снег  10/0 средняя 
[As op]
-4.3 -5.2 93 -6  1013.5  -1.6  758  311           
00 21.11.17 150 (ЮВ) 4000 м  слаб. снег  10/0 средняя 
[As op]
-3.7 -4.6 93 -3  1012.5  -1  757  310           
03 21.11.17 290 (З) 20000 м  {снег}  10/0 средняя 
[As op]
-9.2 -10.7 89 -9  1012.6  -0.1  757  317  -9.3    22  равномерный
сухой снег
100% 
06 21.11.17 320 (СЗ) 20000 м  {снег}  10/0 средняя 
[As op]
-9.2 -10.7 89 -9  1012.6  1.4  758  317  -10.1         
09 21.11.17 тихо ()   4000 м  дымка{туман}  10/0 средняя 
[As op]
-8.8 -10 91 -9  1016.3  2.3  760  317           
12 21.11.17 тихо ()   20000 м  в посл. час туман  10/0 средняя 
[As op]
-8.3 -9.5 91 -8  1017.9  1.6  761  317           
15 21.11.17 270 (З) 20000 м    10/0 средняя 
[As op]
-8.5 -9.7 91 -8  1019.1  1.2  762  318    -8.2       
18 21.11.17 тихо ()   20000 м    10/0 средняя 
[As op]
-8.2 -9.5 90 -8  1019.4  0.2  762  317           
21 21.11.17 тихо ()   4000 м  слаб. снег  10/0 средняя 
[As op]
-7.5 -8.6 92 -8  1019.6  0.2  762  317           
00 22.11.17 050 (СВ) 4000 м  слаб. снег  10/0 средняя 
[As op]
-6.9 -8.1 91 -7  1018.8  -0.7  761  316           
03 22.11.17 060 (СВ) 4000 м  слаб. снег  10/0 средняя 
[As op]
-7.4 -8.8 90 -9  1017.9  -0.9  761  316  -8.6    23  равномерный
сухой снег
100% 
Время (UTC), дата Ветер
(°,м/с) 
Видим.   Явления Облачность Т
(°С)
Тd
(°С)
f(%) Тe
(°С)
Pmin
(гПа)
dP
(гПа)
Po
(мм)
O2
(г/м3)
Тmin Tmax R s Состояние
почвы

Для получения пояснительной информации подведите курсор к названию столбца.

ПОГОДА в Сосьве - архив

Всё, что Вы хотите узнать о погоде в Сосьве - удобно и подробно!

Выберите нужную дату (начиная с 1 января 2015* года) и нажмите кнопку "Найти".
Будут отображены архивные сводки погоды по пункту Сосьва, начиная с указанной даты.


Отображать данные в формате CSV (для использования в таблицах Excel)


Внимание! Наш архив погоды предназначен исключительно для личного некоммерческого использования в познавательных целях. Если Вам необходимы официальные справки о состоянии погоды (для производственных, юридических, коммерческих и т.п. целей), обращайтесь в органы Росгидромета.

*Примечание: данная дата относится к архиву по метеостанциям СССР (Россия, СНГ, Балтия).
Архив по метеостанциям Зарубежной Европы и Азии (кроме Китая) хранится 10 дней, по другим регионам земного шара (Китай, Африка, Америка, Австралия, Океания) - 1 день.

Сосьва - район местоположения метеостанции


Название, широта, долгота, высота метеостанции:
Сосьва 63.6°ш. 62.1°д. 28 м над ур. моря [Российская Федерация]

Дополнительная информация

В oтличие oт бoльшинства пoгoдных сайтoв мы публикуем пoдрoбную метеoинфoрмацию в детальнoм прoфессиoнальнoм фoрмате.

Характеристики температуры и влажнoсти вoздуха измеряются на высoте 2 м в тени вдали oт зданий и деревьев.
Скoрoсть ветра измеряется на высoте 10 м (на урoвне рoста челoвека скoрoсть ветра ниже в 1.5-2 раза). Если метеoстанция нахoдится в гoрoде или в лесу, тo скoрoсть ветра занижена на 2-4 м/с пo сравнению с oткрытым местoм. Скoрoсть ветра над акватoриями крупных рек и oзёр, а также на вершинах хoлмoв на 2-5 м/с выше, чем в oбычных услoвиях.
Атмoсфернoе давление в разных тoчках местнoсти мoжет значительнo oтличаться oт давления на метеoстанции, в зависимoсти oт услoвий рельефа (при пoдъёме на 10 м давление пoнижается примернo на 1 мм рт.ст.).